Weather History for KF05 - November, 2013

Change the Weather History Date:

Tuesday, November 5, 2013

  Actual Average (KLTS) Record (KLTS)
Temperature  
Mean Temperature 64 °F -  
Max Temperature 77 °F 62 °F 82 °F (2008)
Min Temperature 52 °F 41 °F 31 °F (2010)
Growing Degree Days 14 (Base 50)    
Moisture  
Dew Point 58 °F    
Average Humidity 78    
Maximum Humidity 88    
Minimum Humidity 56    
Precipitation  
Precipitation 0.10 in - - ()
Sea Level Pressure  
Sea Level Pressure 29.94 in    
Wind  
Wind Speed 12 mph (SSE)    
Max Wind Speed 23 mph    
Max Gust Speed 33 mph    
Visibility 10 miles    
Events      
Averages and records for this station are not official NWS values.
T = Trace of Precipitation, MM = Missing Value Source: NWS Daily Summary

Daily Weather History Graph

Daily Weather History Graph

Search for Another Location

Airport or City:

Trip Planner

Search our weather history database for the weather conditions in past years. The results will help you decide how hot, cold, wet, or windy it might be!

Date:

Astronomy

Nov. 05, 2013 Rise Set
Actual Time 7:00 AM CST 5:40 PM CST
Civil Twilight 6:34 AM CST 6:06 PM CST
Nautical Twilight 6:04 AM CST 6:36 PM CST
Astronomical Twilight 5:35 AM CST 7:05 PM CST
Moon 9:13 AM CST (11/5) 7:46 PM CST (11/5)
Length of Visible Light 11h 31m
Length of Day
10h 39m
Waxing Crescent, 7% of the Moon is Illuminated
Nov 5
Waxing Crescent
Nov 9
First Quarter
Nov 17
Full
Nov 25
Last Quarter
Dec 2
New

Hourly Weather History & Observations

Time (CST) Temp. Dew Point Humidity Pressure Visibility Wind Dir Wind Speed Gust Speed Precip Events Conditions
12:15 AM 58.1 °F 54.0 °F 86% 29.99 in 10.0 mi ESE 5.8 mph - N/A   Clear
12:35 AM 57.9 °F 54.1 °F 87% 29.99 in 10.0 mi SE 4.6 mph - N/A   Mostly Cloudy
12:55 AM 58.6 °F 54.5 °F 86% 29.99 in 10.0 mi SE 6.9 mph - N/A   Overcast
1:15 AM 58.8 °F 54.5 °F 86% 29.98 in 10.0 mi SE 6.9 mph - N/A   Scattered Clouds
1:35 AM 59.0 °F 55.0 °F 87% 29.98 in 10.0 mi ESE 5.8 mph - N/A   Mostly Cloudy
1:55 AM 59.7 °F 55.4 °F 86% 29.98 in 10.0 mi ESE 5.8 mph - N/A   Overcast
2:15 AM 59.9 °F 55.6 °F 86% 29.98 in 10.0 mi ESE 5.8 mph - N/A   Overcast
2:35 AM 60.3 °F 55.9 °F 86% 29.98 in 10.0 mi SE 9.2 mph - N/A   Overcast
2:55 AM 61.2 °F 56.3 °F 84% 29.97 in 10.0 mi SSE 9.2 mph - N/A   Overcast
3:15 AM 61.9 °F 56.3 °F 82% 29.97 in 10.0 mi SSE 11.5 mph 17.3 mph N/A   Overcast
3:35 AM 62.1 °F 56.5 °F 82% 29.96 in 10.0 mi SSE 12.7 mph - N/A   Overcast
3:55 AM 62.1 °F 56.5 °F 82% 29.96 in 10.0 mi SE 13.8 mph - N/A   Overcast
4:15 AM 62.2 °F 56.7 °F 82% 29.96 in 10.0 mi SSE 9.2 mph - N/A   Overcast
4:35 AM 62.6 °F 56.8 °F 81% 29.96 in 10.0 mi SSE 10.4 mph - N/A   Overcast
4:55 AM 62.6 °F 57.2 °F 82% 29.96 in 10.0 mi SSE 11.5 mph - N/A   Overcast
5:15 AM 62.6 °F 57.2 °F 82% 29.96 in 10.0 mi SE 13.8 mph - N/A   Overcast
5:35 AM 62.6 °F 57.4 °F 83% 29.96 in 10.0 mi SE 15.0 mph - N/A   Overcast
5:55 AM 62.6 °F 57.6 °F 84% 29.96 in 10.0 mi SSE 12.7 mph - N/A   Overcast
6:15 AM 62.6 °F 57.7 °F 84% 29.96 in 10.0 mi SE 12.7 mph - N/A   Overcast
6:35 AM 62.6 °F 57.7 °F 84% 29.95 in 10.0 mi SE 9.2 mph - N/A   Overcast
6:55 AM 62.6 °F 57.9 °F 85% 29.95 in 10.0 mi SE 12.7 mph - N/A   Overcast
7:15 AM 62.6 °F 58.1 °F 85% 29.95 in 10.0 mi SSE 10.4 mph - N/A   Overcast
7:35 AM 62.6 °F 58.1 °F 85% 29.95 in 10.0 mi SE 12.7 mph - N/A   Overcast
7:55 AM 62.8 °F 58.1 °F 85% 29.96 in 10.0 mi SSE 13.8 mph - N/A   Overcast
8:15 AM 63.1 °F 58.1 °F 84% 29.96 in 10.0 mi SE 12.7 mph - N/A   Overcast
8:35 AM 63.5 °F 58.1 °F 83% 29.96 in 10.0 mi SSE 13.8 mph - N/A   Overcast
8:55 AM 63.5 °F 58.3 °F 83% 29.97 in 10.0 mi SSE 11.5 mph - N/A   Overcast
9:15 AM 64.2 °F 58.5 °F 82% 29.97 in 10.0 mi SSE 15.0 mph - N/A   Overcast
9:35 AM 64.8 °F 58.6 °F 81% 29.97 in 10.0 mi SSE 17.3 mph - N/A   Overcast
9:55 AM 66.2 °F 59.0 °F 78% 29.96 in 10.0 mi South 18.4 mph - N/A   Overcast
10:15 AM 66.9 °F 59.0 °F 76% 29.96 in 10.0 mi South 19.6 mph - N/A   Overcast
10:35 AM 67.8 °F 59.2 °F 74% 29.96 in 10.0 mi South 21.9 mph 25.3 mph N/A   Overcast
10:55 AM 68.2 °F 59.2 °F 73% 29.96 in 10.0 mi South 20.7 mph 24.2 mph N/A   Overcast
11:15 AM 68.7 °F 59.4 °F 72% 29.96 in 10.0 mi South 18.4 mph - N/A   Overcast
11:35 AM 68.0 °F 59.5 °F 74% 29.95 in 10.0 mi SSE 19.6 mph - N/A   Overcast
11:55 AM 69.4 °F 59.9 °F 72% 29.94 in 10.0 mi South 16.1 mph 20.7 mph N/A   Overcast
12:15 PM 70.3 °F 59.9 °F 69% 29.93 in 10.0 mi SSE 13.8 mph - N/A   Overcast
12:35 PM 72.5 °F 60.1 °F 65% 29.92 in 10.0 mi South 17.3 mph 20.7 mph N/A   Overcast
12:55 PM 72.7 °F 59.9 °F 64% 29.91 in 10.0 mi South 13.8 mph - N/A   Overcast
1:15 PM 72.3 °F 59.9 °F 65% 29.90 in 10.0 mi South 12.7 mph - N/A   Overcast
1:35 PM 73.8 °F 60.3 °F 63% 29.88 in 10.0 mi South 18.4 mph - N/A   Mostly Cloudy
1:55 PM 75.6 °F 60.3 °F 59% 29.87 in 10.0 mi South 17.3 mph 21.9 mph N/A   Mostly Cloudy
2:15 PM 75.2 °F 60.4 °F 60% 29.87 in 10.0 mi South 13.8 mph - N/A   Overcast
2:35 PM 75.2 °F 60.4 °F 60% 29.87 in 10.0 mi South 18.4 mph 24.2 mph N/A   Overcast
2:55 PM 76.1 °F 60.6 °F 59% 29.87 in 10.0 mi South 19.6 mph 23.0 mph N/A   Mostly Cloudy
3:15 PM 76.5 °F 60.6 °F 58% 29.86 in 10.0 mi South 19.6 mph 24.2 mph N/A   Mostly Cloudy
3:35 PM 77.2 °F 60.4 °F 56% 29.85 in 10.0 mi South 18.4 mph - N/A   Scattered Clouds
3:55 PM 77.2 °F 60.3 °F 56% 29.85 in 10.0 mi South 19.6 mph - N/A   Scattered Clouds
4:15 PM 75.6 °F 60.4 °F 59% 29.85 in 10.0 mi South 19.6 mph 25.3 mph N/A   Scattered Clouds
4:35 PM 73.8 °F 60.6 °F 63% 29.86 in 10.0 mi South 17.3 mph 24.2 mph N/A   Mostly Cloudy
4:55 PM 73.4 °F 61.0 °F 65% 29.86 in 10.0 mi South 18.4 mph 23.0 mph N/A   Mostly Cloudy
5:15 PM 72.3 °F 61.0 °F 67% 29.86 in 10.0 mi SSE 17.3 mph - N/A   Scattered Clouds
5:35 PM 71.1 °F 60.8 °F 70% 29.86 in 10.0 mi South 13.8 mph - N/A   Clear
5:55 PM - - N/A% 29.86 in 10.0 mi South 11.5 mph - N/A   Unknown
6:15 PM 68.9 °F 62.1 °F 79% 29.87 in 10.0 mi South 9.2 mph - N/A   Mostly Cloudy
6:35 PM 68.0 °F 62.2 °F 82% 29.87 in 10.0 mi South 12.7 mph - N/A   Clear
6:55 PM 67.6 °F 62.2 °F 83% 29.88 in 10.0 mi South 12.7 mph - N/A   Clear
7:15 PM 67.3 °F 62.4 °F 84% 29.88 in 10.0 mi SSE 9.2 mph - N/A   Clear
7:35 PM 66.7 °F 62.6 °F 86% 29.87 in 10.0 mi SSE 11.5 mph - N/A   Clear
7:55 PM 66.6 °F 62.2 °F 86% 29.87 in 10.0 mi SSE 10.4 mph - N/A   Clear
8:15 PM 66.4 °F 61.9 °F 85% 29.88 in 10.0 mi South 10.4 mph - N/A   Clear
8:35 PM 66.2 °F 61.7 °F 85% 29.90 in 10.0 mi South 9.2 mph - N/A   Clear
8:55 PM 65.8 °F 61.7 °F 86% 29.91 in 10.0 mi South 6.9 mph - N/A   Scattered Clouds
9:15 PM 65.7 °F 61.7 °F 87% 29.94 in 10.0 mi West 9.2 mph - N/A   Mostly Cloudy
9:35 PM 65.5 °F 59.4 °F 81% 29.97 in 10.0 mi NW 15.0 mph 25.3 mph N/A   Overcast
9:55 PM 62.4 °F 57.9 °F 85% 30.00 in 5.0 mi NNW 13.8 mph 18.4 mph 0.10 in   Overcast
10:15 PM 58.3 °F 54.9 °F 88% 30.03 in 10.0 mi North 19.6 mph 27.6 mph N/A   Overcast
10:35 PM 54.7 °F 50.0 °F 84% 30.04 in 10.0 mi North 21.9 mph 33.4 mph N/A   Overcast
10:55 PM 53.2 °F 47.8 °F 82% 30.06 in 10.0 mi North 23.0 mph 28.8 mph N/A   Overcast
11:15 PM 52.7 °F 47.1 °F 81% 30.06 in 10.0 mi North 19.6 mph 27.6 mph N/A   Overcast
11:35 PM 52.3 °F 46.0 °F 79% 30.07 in 10.0 mi North 18.4 mph 25.3 mph N/A   Overcast
11:55 PM 52.2 °F 45.9 °F 79% 30.07 in 10.0 mi North 18.4 mph - N/A   Overcast